Regional Weather Roundup
Issued by NWS

Home | Current Version | Previous Version | Text Only | Print | Product List | Glossary On
Versions: 1 2 3 4 5 6 7 8 9 10 11 12 13 14 15 16 17 18 19 20 21 22 23 24 25 26 27 28 29 30 31 32 33 34 35 36 37 38 39 40 41 42 43 44 45 46 47 48 49 50
000
ASUS43 KDTX 280601
RWRMI
MICHIGAN HOURLY REGIONAL WEATHER ROUNDUP
NATIONAL WEATHER SERVICE DETROIT/PONTIAC MI
100 AM EST WED JAN 28 2015

NOTE: "FAIR" INDICATES FEW OR NO CLOUDS BELOW 12,000 FEET WITH NO
SIGNIFICANT WEATHER AND/OR OBSTRUCTION TO VISIBILITY.

MIZ047>049-052>055-059>063-066>070-074>076-081>083-280700-
SOUTHEAST LOWER MICHIGAN

CITY           SKY/WX    TMP DP  RH WIND       PRES   REMARKS
ADRIAN         CLEAR     10   6  84 N3        30.25R
6HR MIN TEMP:  10; 6HR MAX TEMP:  20;

ALMA           PTCLDY     8   6  88 CALM      30.25F
6HR MIN TEMP:   7; 6HR MAX TEMP:  15;

ANN ARBOR      CLEAR      9   5  84 NW3       30.24R
BAD AXE        PTCLDY     5   2  89 CALM      30.23R
CARO           CLEAR     10   6  86 CALM      30.24S
DETROIT CITY   CLEAR     19   9  65 NW5       30.23R WCI  12
6HR MIN TEMP:  19; 6HR MAX TEMP:  23;

DETROIT        CLEAR     14   9  80 NW5       30.25R WCI   6
6HR MIN TEMP:  14; 6HR MAX TEMP:  23;

FLINT          CLEAR     10   5  80 W5        30.25R WCI   2
6HR MIN TEMP:   9; 6HR MAX TEMP:  20;

GROSSE ILE     CLEAR     16  10  79 NW6       30.22S WCI   7
HILLSDALE      PTCLDY     8   5  89 CALM      30.22R
HOWELL         CLEAR     11   8  89 CALM      30.23S

CITY           SKY/WX    TMP DP  RH WIND       PRES   REMARKS
JACKSON        PTCLDY     9   5  84 CALM      30.23S
6HR MIN TEMP:   8; 6HR MAX TEMP:  20;

LAMBERTVILLE   FAIR      14  10  85 CALM      30.25S
LANSING        CLEAR     11   5  77 CALM      30.25S
6HR MIN TEMP:  10; 6HR MAX TEMP:  20;

LAPEER         FAIR       4   2  88 CALM      30.23R
MASON          CLEAR     10   7  89 CALM      30.24S
MONROE         CLEAR     14  10  85 CALM      30.23R
MT. CLEMENS    CLEAR     15   9  77 NW7       30.20S WCI   5
6HR MIN TEMP:  15; 6HR MAX TEMP:  20;

PONTIAC        CLEAR     10   6  84 W6        30.21R WCI   0
6HR MIN TEMP:   9; 6HR MAX TEMP:  19;

PORT HOPE        N/A     23  10  57 N5        30.21S WCI  17
6HR MIN TEMP:  22; 6HR MAX TEMP:  23;

PORT HURON     PTCLDY     5   3  92 NW3       30.22R
TRI CITIES     CLEAR     13   9  84 N5        30.26S WCI   5
6HR MIN TEMP:  13; 6HR MAX TEMP:  20;

TROY           CLEAR     18  10  68 NW6       30.25R WCI  10
SAGINAW HB     CLEAR     14  10  85 NW3       30.26S
$$
MIZ043>046-050>051-056>058-064>065-071>073-077>080-280700-
SOUTHWEST LOWER MICHIGAN

CITY           SKY/WX    TMP DP  RH WIND       PRES   REMARKS
BATTLE CREEK   CLEAR     14   7  73 CALM      30.23F
6HR MIN TEMP:  13; 6HR MAX TEMP:  25;

BENTON HARBOR  PTCLDY    14  11  87 CALM      30.25F
6HR MIN TEMP:  12; 6HR MAX TEMP:  23;

BIG RAPIDS     PTCLDY     7   4  86 CALM      30.20F
6HR MIN TEMP:   7; 6HR MAX TEMP:  21;

COLDWATER      PTCLDY    10   7  87 CALM      30.23F
6HR MIN TEMP:   9; 6HR MAX TEMP:  21;

FREMONT        FAIR      14   8  78 CALM      30.23S
HOLLAND        PTCLDY    16  10  77 CALM      30.25F
6HR MIN TEMP:  15; 6HR MAX TEMP:  25;

GRAND RAPIDS   PTCLDY    13   8  81 CALM      30.23F
6HR MIN TEMP:  13; 6HR MAX TEMP:  24;

IONIA          FAIR      12   6  78 E5        30.23F WCI   4
KALAMAZOO      PTCLDY    10   5  80 W3        30.24F
6HR MIN TEMP:  10; 6HR MAX TEMP:  22;

LUDINGTON      PTCLDY    14   9  79 CALM      30.25S
6HR MIN TEMP:  13; 6HR MAX TEMP:  22;

MARSHALL       CLEAR      9   5  84 CALM      30.23F
MOUNT PLEASANT PTCLDY     7   4  87 CALM      30.23F
6HR MIN TEMP:   6; 6HR MAX TEMP:  19;

MUSKEGON       PTCLDY    15   9  76 CALM      30.26R
6HR MIN TEMP:  14; 6HR MAX TEMP:  24;

SOUTH HAVEN    PTCLDY    14  11  87 CALM      30.25F
$$
MIZ016>042-280700-
NORTHERN LOWER MICHIGAN

CITY           SKY/WX    TMP DP  RH WIND       PRES   REMARKS
ALPENA         PTCLDY    -2  -6  83 CALM      30.23F
6HR MIN TEMP:  -2; 6HR MAX TEMP:  10;

BEAVER ISLAND  PTCLDY     3  -2  81 CALM      30.24R
6HR MIN TEMP:   1; 6HR MAX TEMP:  10;

BELLAIRE       PTCLDY     4   1  86 CALM      30.24F
6HR MIN TEMP:   3; 6HR MAX TEMP:  18;

CADILLAC       PTCLDY     0  -4  81 CALM      30.17F
CHARLEVOIX     PTCLDY     6   3  87 SE5       30.25S WCI  -3
6HR MIN TEMP:   5; 6HR MAX TEMP:  16;

FRANKFORT      PTCLDY    12   8  84 CALM      30.24R
GAYLORD        PTCLDY     1  -4  79 CALM      30.17F
6HR MIN TEMP:  -2; 6HR MAX TEMP:  15;

GRAYLING       PTCLDY    -3  -8  82 CALM      30.20F
6HR MIN TEMP:  -4; 6HR MAX TEMP:  10;

HARBOR SPRINGS PTCLDY     4  -1  79 NE3       30.21F
HOUGHTON LAKE  PTCLDY     0  -4  83 CALM      30.20F
6HR MIN TEMP:   0; 6HR MAX TEMP:  15;

MANISTEE       PTCLDY    10   3  72 CALM      30.24R
OSCODA         PTCLDY     8   2  78 CALM      30.23F
PELLSTON       PTCLDY    -5  -9  83 CALM      30.22F
6HR MIN TEMP:  -5; 6HR MAX TEMP:  12;

ROGERS CITY    MOCLDY     3   0  87 SW5       30.24F WCI  -6
TRAVERSE CITY  PTCLDY     7   3  84 CALM      30.22F
6HR MIN TEMP:   7; 6HR MAX TEMP:  22;

$$
MIZ007>008-015-280700-
EASTERN UPPER MICHIGAN

CITY           SKY/WX    TMP DP  RH WIND       PRES   REMARKS
KINROSS        MOCLDY     1  -4  78 CALM      30.20F
6HR MIN TEMP:   0; 6HR MAX TEMP:   9;

MACKINAC ISLAN PTCLDY     8  -2  63 S5        30.20F WCI   0
6HR MIN TEMP:   7; 6HR MAX TEMP:  10;

NEWBERRY       MOCLDY     5   3  90 SW7       30.22R WCI  -7
S. S. MARIE    MOCLDY     4  -3  73 NE3       30.21F
6HR MIN TEMP:   2; 6HR MAX TEMP:  12;

MUNISING         N/A     13   8  81 S6        30.23S WCI   4
6HR MIN TEMP:  11; 6HR MAX TEMP:  17;

$$
MIZ004>006-011>014-085-280700-
CENTRAL UPPER MICHIGAN

CITY           SKY/WX    TMP DP  RH WIND       PRES   REMARKS
MANISTIQUE     MOCLDY     3   0  86 W3        30.23R
ESCANABA       CLOUDY    21  14  73 SW3       30.24S
6HR MIN TEMP:  19; 6HR MAX TEMP:  23;

MENOMINEE      MOCLDY    18  16  93 CALM      30.25R
6HR MIN TEMP:  18; 6HR MAX TEMP:  21;

SAWYER-GWINN   CLOUDY    21  17  84 SW5       30.18R WCI  14
$$
MIZ001>003-009>011-084-280700-
WESTERN UPPER MICHIGAN

CITY           SKY/WX    TMP DP  RH WIND       PRES   REMARKS
IRON MOUNTAIN  CLOUDY    22  17  81 S5        30.18R WCI  16
6HR MIN TEMP:  22; 6HR MAX TEMP:  23;

HOUGHTON       CLOUDY    24  18  77 S5        30.14F WCI  18
6HR MIN TEMP:  24; 6HR MAX TEMP:  25;

COPPER HARBOR    N/A     27  19  72 W7        30.17S WCI  19
6HR MIN TEMP:  24; 6HR MAX TEMP:  27;

IRONWOOD       CLOUDY    25  19  80 S6        30.11F WCI  18
6HR MIN TEMP:  25; 6HR MAX TEMP:  27;

$$

ABBREVIATIONS USED IN REMARKS
   TC - TEMPERATURE IN CELSIUS
  WCI - WIND CHILL INDEX
   HX - HEAT INDEX
  VSB - VISIBILITY




USA.gov is the U.S. government's official web portal to all federal, state and local government web resources and services.